HK6RM-20 Weather Reports


time (UTC)temp
C
wind
direction
speed
KPH
gust
KPH
rain 1hr
cm
rain 24hr
cm
rain mn
cm
humidity
%
barometer
mb
20260504150455 25 307 1.6 1.6 0.00 0.00 0.00 77 1014.0
20260504141253 23 291 1.6 1.6 0.00 0.00 0.00 88 1015.0
20260504130749 22 261 1.6 0.0 0.00 0.00 0.00 94 1016.0
20260504120242 19 157 0.0 0.0 0.00 0.00 0.00 95 1016.0
20260504100533 20 105 0.0 1.6 0.00 0.00 0.00 93 1015.0
20260504080829 18 182 0.0 1.6 0.00 0.00 0.00 93 1015.0
20260504070322 21 193 0.0 1.6 0.00 0.00 0.00 93 1015.0
20260504050617 21 88 1.6 1.6 0.08 0.00 0.00 89 1016.0
20260504045316 21 88 1.6 1.6 0.08 0.00 0.00 89 1016.0
20260504044014 22 88 1.6 1.6 0.05 0.00 0.00 89 1016.0
20260504042714 22 88 1.6 1.6 0.03 0.00 0.00 89 1017.0
20260504041413 23 88 1.6 1.6 0.00 0.00 0.00 89 1017.0
20260504040113 18 107 1.6 6.4 0.10 0.00 0.00 81 1017.0
20260504033511 18 107 1.6 6.4 0.08 0.00 0.00 81 1017.0
20260504032211 19 107 1.6 6.4 0.03 0.00 0.00 81 1017.0
20260504030906 20 107 1.6 6.4 0.00 0.00 0.00 81 1017.0
20260504025605 20 107 1.6 6.4 0.00 0.00 0.00 81 1016.0
20260504024304 21 107 1.6 6.4 0.00 0.00 0.00 81 1016.0
20260504023003 21 107 1.6 6.4 0.00 0.00 0.00 81 1016.0
20260504021703 22 107 1.6 6.4 0.00 0.00 0.00 81 1016.0
20260504020402 22 107 1.6 6.4 0.00 0.00 0.00 81 1016.0
20260504015101 23 107 1.6 6.4 0.00 0.00 0.00 81 1015.0
20260504013800 23 107 1.6 6.4 0.00 0.00 0.00 81 1015.0
20260504012500 24 107 1.6 6.4 0.00 0.00 0.00 81 1015.0
20260504011159 25 107 1.6 6.4 0.00 0.00 0.00 81 1015.0
20260504005857 18 113 1.6 6.4 0.00 0.00 0.00 74 1014.0
20260504004555 19 113 1.6 6.4 0.00 0.00 0.00 74 1014.0
20260504003255 20 113 1.6 6.4 0.00 0.00 0.00 74 1014.0
20260504001954 20 113 1.6 6.4 0.00 0.00 0.00 74 1014.0
20260504000653 21 113 1.6 6.4 0.00 0.00 0.00 74 1012.0
20260503235351 21 113 1.6 6.4 0.00 0.00 0.00 74 1012.0
20260503234050 22 113 1.6 6.4 0.00 0.00 0.00 74 1012.0
20260503232750 22 54 0.0 1.6 0.00 0.00 0.00 74 1013.0
20260503231449 23 54 0.0 1.6 0.00 0.00 0.00 74 1012.0
20260503230149 23 54 0.0 1.6 0.00 0.00 0.00 74 1012.0
20260503224848 24 54 0.0 1.6 0.00 0.00 0.00 74 1011.0
20260503223539 25 54 0.0 1.6 0.00 0.00 0.00 74 1010.0
20260503222235 25 318 0.0 1.6 0.00 0.00 0.00 74 1010.0
20260503220935 26 318 0.0 1.6 0.00 0.00 0.00 74 1010.0
20260503215635 26 318 0.0 1.6 0.00 0.00 0.00 74 1009.0
20260503214334 27 318 0.0 1.6 0.00 0.00 0.00 74 1009.0
20260503213033 27 318 0.0 1.6 0.00 0.00 0.00 74 1009.0
20260503211732 25 30 1.6 1.6 0.00 0.00 0.00 66 1010.0
20260503210431 26 30 1.6 1.6 0.00 0.00 0.00 66 1010.0
20260503205130 26 30 1.6 1.6 0.00 0.00 0.00 66 1009.0
20260503203828 27 30 1.6 1.6 0.00 0.00 0.00 66 1009.0
20260503202527 27 30 1.6 3.2 0.00 0.00 0.00 66 1010.0
20260503201222 26 37 1.6 1.6 0.00 0.00 0.00 68 1009.0
20260503195920 26 37 1.6 1.6 0.00 0.00 0.00 68 1009.0
20260503194619 27 37 1.6 1.6 0.00 0.00 0.00 68 1009.0
20260503193318 27 37 1.6 1.6 0.00 0.00 0.00 68 1009.0
20260503192015 28 37 1.6 1.6 0.00 0.00 0.00 68 1009.0
20260503190713 28 37 1.6 1.6 0.00 0.00 0.00 68 1009.0
20260503185411 29 37 1.6 1.6 0.00 0.00 0.00 68 1009.0
20260503184110 30 37 1.6 1.6 0.00 0.00 0.00 68 1010.0
20260503182810 30 37 1.6 3.2 0.00 0.00 0.00 68 1011.0
20260503181509 26 344 1.6 1.6 0.00 0.00 0.00 73 1011.0
20260503180204 27 344 1.6 1.6 0.00 0.00 0.00 73 1011.0
20260503174901 27 344 1.6 1.6 0.00 0.00 0.00 73 1011.0
20260503173600 28 344 1.6 1.6 0.00 0.00 0.00 73 1011.0
20260503172258 28 344 1.6 1.6 0.00 0.00 0.00 73 1012.0
20260503170957 29 344 1.6 1.6 0.00 0.00 0.00 73 1012.0